Lapse_Rate
6.8 7.6 7.7 7.5 7.2 6.5 6.1 6.2 6.0 5.9 5.8 5.8 5.8 5.8 6.0 6.1 6.0 6.2 6.3 6.4 6.5 6.3 6.1 6.4 6.6 6.3 6.3 6.1 6.0 5.9 5.9 5.6 5.7 5.3 5.2 5.2 5.9 6.0 5.7 5.3 5.2 5.2 5.4
7.1 7.2 7.1 6.8 7.0 6.9 6.6 6.5 6.5 6.2 6.4 6.1 6.1 6.1 6.2 6.2 6.3 6.6 6.6 6.5 6.4 6.4 6.4 6.4 6.6 6.1 6.2 6.2 6.2 5.9 5.8 5.5 5.7 5.3 5.3 5.1 4.8 4.7 5.5 5.5 5.3 5.4 5.9
7.3 7.3 7.5 7.4 7.2 7.1 7.1 7.2 7.0 6.5 6.6 6.6 6.7 6.7 6.6 6.6 6.8 7.1 6.9 6.9 6.8 7.0 6.8 6.5 6.6 6.4 6.0 6.2 6.2 6.0 5.9 5.5 5.7 5.7 5.3 5.2 5.1 4.8 4.5 4.5 4.8 5.5 5.7
7.9 7.5 7.6 7.4 7.3 7.1 7.3 7.5 7.0 7.3 7.0 7.0 7.1 7.2 7.1 7.2 7.1 7.2 7.2 7.0 7.0 6.9 6.8 6.6 6.5 6.4 6.0 6.2 6.2 6.1 6.0 5.5 5.3 5.8 5.6 5.0 4.8 4.8 5.1 5.0 4.8 4.7 5.3
7.5 8.0 8.0 7.8 7.8 7.8 7.6 7.3 7.2 7.1 7.0 6.7 6.4 7.2 7.1 7.1 6.8 7.0 7.3 7.0 7.0 7.0 6.8 6.6 6.6 6.2 6.1 5.9 6.1 6.5 6.1 5.8 5.5 5.2 5.5 5.2 5.1 5.3 5.4 5.5 5.6 5.3 5.5
7.6 7.7 7.8 7.7 7.7 7.7 7.7 7.6 7.5 7.4 7.6 7.7 7.3 7.5 7.3 7.2 6.9 7.0 7.1 6.9 6.7 6.7 6.4 6.5 6.2 6.3 6.2 6.0 5.9 5.8 5.8 6.0 5.9 5.5 5.2 5.0 5.4 5.2 5.6 5.6 5.7 6.0 5.8
7.8 7.5 7.1 7.8 7.8 7.7 7.9 7.9 7.8 7.9 7.7 7.8 7.7 7.4 7.5 7.2 6.9 6.8 7.0 7.0 6.9 7.0 6.7 6.4 6.2 6.1 6.1 6.2 6.1 5.7 5.5 6.1 5.7 5.7 5.6 5.5 5.5 5.2 5.3 5.3 5.5 5.6 5.8
8.3 8.1 7.8 7.3 7.7 8.1 8.1 8.1 8.2 7.9 7.7 7.6 7.5 7.4 7.2 7.2 7.1 6.9 6.9 6.4 6.7 6.9 6.7 6.6 6.5 6.4 6.2 6.1 6.2 6.0 5.7 6.2 5.9 5.7 5.8 5.8 5.8 5.6 5.3 5.3 5.5 5.6 5.6
8.4 8.5 8.3 8.0 7.7 7.6 8.0 8.3 8.2 8.1 7.8 7.7 7.5 7.3 7.3 7.2 7.2 7.2 6.9 7.0 7.0 7.0 6.9 6.8 6.7 6.5 6.7 6.0 6.2 5.8 5.7 5.7 5.9 5.9 6.0 5.8 5.8 5.6 5.8 5.7 5.6 5.3 5.1
8.3 8.5 8.6 8.5 8.0 7.7 7.6 7.9 8.2 7.9 7.9 7.7 7.7 7.6 7.5 7.3 7.2 7.4 7.3 7.1 7.0 7.0 7.0 7.0 6.8 6.6 6.3 6.0 5.9 5.7 5.7 5.9 6.0 6.1 6.0 5.8 5.6 5.6 5.7 5.6 5.2 5.3 5.2
8.2 8.5 8.6 8.6 8.4 8.2 7.7 7.5 7.8 7.9 7.6 7.7 7.7 7.9 7.7 7.4 7.5 7.4 7.3 7.2 7.1 7.2 7.0 6.8 6.4 6.4 6.2 5.9 6.1 5.9 5.7 5.4 5.7 5.6 5.5 5.4 5.1 5.3 5.1 5.2 5.3 5.2 5.1
8.0 8.2 8.5 8.6 8.5 8.2 8.1 7.7 7.4 7.7 7.9 7.7 7.4 8.1 8.0 8.1 7.7 7.4 7.5 7.3 7.0 7.1 7.1 6.8 6.5 6.1 6.0 5.7 6.0 5.8 5.5 5.6 5.5 5.5 5.3 5.2 5.0 5.1 5.5 5.5 5.4 5.4 5.3
8.4 8.0 8.2 8.5 8.5 8.3 8.1 7.7 7.4 7.4 7.8 7.3 7.3 7.6 8.3 7.8 7.6 7.6 7.6 7.4 7.3 7.3 7.1 6.8 6.4 5.9 5.7 5.7 5.3 5.3 5.3 5.0 5.0 5.0 5.1 5.1 5.3 5.3 5.1 5.1 5.1 5.0 4.9
8.3 8.4 8.0 7.9 8.1 8.1 8.1 8.0 7.8 8.1 8.2 7.8 7.9 8.0 7.9 7.8 7.8 7.6 7.6 7.4 7.3 7.2 7.1 6.6 6.2 6.1 5.9 5.2 5.0 5.2 4.8 4.9 4.9 5.1 5.1 5.3 5.2 5.1 5.1 5.1 5.0 5.0 4.8
8.5 8.4 8.3 7.6 7.3 7.7 7.9 8.1 8.2 8.2 8.2 8.2 8.0 7.7 7.8 7.8 7.6 7.5 7.5 7.6 7.4 7.1 6.9 6.5 6.3 6.0 5.8 5.3 5.3 5.1 4.6 4.8 5.0 5.1 5.0 5.0 5.1 5.0 5.0 5.0 5.0 4.7 4.7
8.2 8.2 8.1 7.8 7.0 7.3 7.8 7.9 7.9 7.9 7.9 7.9 7.8 7.8 7.8 7.9 7.8 7.5 7.5 7.4 7.3 7.0 6.6 6.3 6.0 5.8 5.3 4.9 5.1 5.1 5.0 4.9 4.8 5.0 4.9 4.8 4.8 4.8 4.9 4.7 4.5 4.3 4.2
8.1 8.2 8.1 7.6 7.7 7.5 7.7 7.9 7.9 7.8 7.8 7.8 7.9 7.9 7.9 7.9 7.8 7.7 7.5 7.3 7.0 6.5 6.3 6.2 5.6 5.0 5.0 5.1 5.0 5.0 4.9 4.9 5.1 4.9 4.9 4.9 5.0 5.1 4.9 4.8 4.8 4.8 4.8
8.1 7.9 7.8 7.7 7.4 7.4 7.5 7.5 7.5 7.7 7.7 7.8 7.8 7.8 7.7 7.7 7.8 7.7 7.3 6.9 6.6 6.3 6.1 5.4 5.2 5.0 5.1 5.4 5.4 5.2 5.0 4.9 4.8 4.9 5.0 5.0 5.0 4.9 4.7 4.6 4.7 4.7 5.0
7.8 7.7 7.5 7.4 7.4 7.4 7.4 7.3 7.3 7.3 7.3 7.4 7.7 7.8 7.8 7.6 7.3 6.9 6.7 6.5 6.4 6.0 5.3 5.2 5.2 5.3 5.3 5.2 5.0 4.9 4.8 4.9 4.9 4.9 4.9 4.9 4.8 4.7 4.7 4.7 4.8 5.1 5.5
7.6 7.7 7.6 7.5 7.3 7.3 7.2 7.1 7.2 7.4 7.5 7.6 7.5 7.4 7.2 6.9 6.7 6.5 6.4 6.2 5.8 5.5 5.3 5.2 5.1 4.9 5.1 5.1 5.1 4.9 5.0 4.8 4.7 4.9 4.9 4.8 4.6 4.6 4.8 5.0 5.3 5.4 5.6
7.5 7.5 7.6 7.5 7.3 7.0 7.0 7.1 7.2 7.3 7.3 7.3 7.3 7.1 6.9 6.7 6.6 6.4 6.1 5.8 5.6 5.5 5.2 5.2 5.1 5.0 5.0 4.9 4.8 4.8 4.7 4.5 4.8 4.7 4.6 4.7 4.8 4.9 5.2 5.3 5.4 5.5 5.6
7.7 7.5 7.6 7.4 7.2 7.0 6.9 7.0 7.1 7.2 7.1 7.1 7.0 6.8 6.6 6.4 6.2 6.0 5.7 5.3 5.2 5.2 5.1 4.9 4.8 4.7 4.7 4.8 4.6 4.8 4.5 4.7 4.6 4.6 4.6 4.7 4.8 4.9 5.1 5.3 5.5 5.6 5.7
7.5 7.4 7.4 7.4 7.2 7.1 7.0 7.0 7.0 6.9 6.9 6.8 6.6 6.4 6.2 6.0 5.8 5.6 5.3 5.1 5.1 5.0 4.9 4.8 4.7 4.5 4.8 4.4 4.6 4.4 4.5 4.5 4.4 4.4 4.5 4.6 4.8 5.0 5.3 5.6 5.7 5.8 5.7
7.4 7.3 7.2 7.0 7.0 7.1 7.1 7.0 6.8 6.7 6.6 6.5 6.3 6.1 5.9 5.7 5.5 5.3 5.2 5.0 4.8 4.7 4.6 4.6 4.5 4.6 4.4 4.2 4.2 4.3 4.3 4.2 4.2 4.4 4.6 4.7 5.1 5.4 5.6 5.8 5.9 6.0 6.0
7.5 7.0 6.8 6.9 6.9 6.9 7.1 7.0 6.7 6.5 6.4 6.3 6.1 5.9 5.6 5.3 5.1 5.0 4.9 4.7 4.5 4.3 4.3 4.3 4.3 4.4 4.2 4.3 4.3 4.3 4.3 4.3 4.4 4.5 4.8 5.1 5.3 5.5 5.7 5.9 6.0 6.2 6.1
7.5 7.1 7.0 7.0 7.0 7.1 7.0 6.8 6.7 6.6 6.4 6.2 6.0 5.4 5.2 5.1 5.0 4.5 4.1 4.0 4.1 4.1 4.1 4.2 4.0 4.1 4.3 4.3 4.2 4.3 4.3 4.3 4.5 4.8 5.1 5.3 5.4 5.6 5.8 6.0 6.2 6.4 6.2
Wind_Speed
20 18 19 22 20 18 18 18 15 16 12 10 9 8 6 6 4 9 15 18 15 15 11 10 9 11 5 6 6 3 4 1 2 2 2 3 5 2 2 5 5 6 9
15 15 19 20 19 20 19 19 18 16 12 10 10 8 9 10 9 12 13 15 16 16 14 10 6 9 4 6 6 5 3 3 4 2 1 1 1 4 5 5 4 8 8
17 18 19 21 22 21 20 18 20 19 17 17 10 7 7 5 7 8 7 9 15 15 15 13 9 9 6 5 6 5 7 4 3 4 1 0 3 2 3 6 5 5 4
20 17 20 19 20 21 19 20 17 19 17 15 11 12 7 7 5 8 8 7 13 14 16 14 11 9 7 5 7 5 5 4 5 3 3 1 3 1 3 3 3 5 6
15 23 22 22 22 19 19 14 12 13 13 14 7 8 7 7 6 6 11 8 6 11 14 10 10 6 6 5 7 6 7 4 3 3 3 1 1 4 4 4 4 4 3
21 18 21 22 20 19 17 17 16 14 10 14 13 9 12 8 6 7 7 8 8 7 9 8 7 7 7 6 4 4 7 6 5 3 3 3 2 2 2 2 3 2 4
21 21 21 20 20 20 19 15 17 17 14 16 15 14 10 12 7 7 9 10 6 5 9 7 7 6 6 7 5 6 4 6 5 5 3 1 2 4 2 2 3 3 3
15 18 18 22 21 21 20 18 18 18 16 14 15 14 14 8 9 7 8 8 8 7 6 7 9 8 7 6 8 2 5 5 6 6 4 1 3 5 2 3 2 4 3
7 13 18 17 20 21 21 20 19 19 17 16 12 12 12 12 9 6 5 4 6 6 9 9 6 6 8 10 6 6 6 5 4 3 3 3 3 6 4 2 2 2 2
4 7 11 16 16 19 20 20 20 18 17 14 14 12 12 10 8 6 5 6 5 6 5 7 7 7 8 10 8 5 6 5 2 2 3 4 6 6 4 3 3 4 4
5 3 3 4 15 15 12 20 19 18 13 15 14 11 9 7 5 5 4 6 5 6 8 9 10 10 10 9 9 7 7 6 5 5 5 9 9 4 3 3 3 3 3
5 6 3 1 3 6 8 13 13 12 11 9 12 12 9 9 5 5 6 8 9 8 11 11 12 12 12 10 9 7 6 7 8 9 9 10 7 7 6 4 6 5 5
6 7 6 5 4 1 1 5 9 9 9 3 8 10 8 11 11 9 8 9 9 10 10 9 9 8 9 8 7 7 7 8 9 9 8 10 6 5 4 4 5 4 5
7 6 10 9 6 5 5 5 10 11 12 11 11 12 9 9 9 9 8 8 9 10 10 9 9 8 7 7 7 7 7 9 8 7 8 6 6 6 6 6 6 6 5
6 5 4 10 10 10 12 11 10 10 10 12 11 9 10 12 10 8 9 9 9 8 9 9 7 7 5 4 5 7 7 5 6 7 7 7 8 10 9 7 6 6 7
8 6 2 12 12 15 12 10 10 9 9 11 11 10 11 10 10 10 10 9 9 8 8 6 6 5 4 9 10 5 4 5 6 6 6 7 9 8 12 15 17 15 13
4 2 2 12 13 13 12 11 11 9 10 11 11 11 11 10 9 11 10 9 8 7 7 6 6 6 6 10 6 5 3 4 5 6 6 7 8 8 8 10 11 12 17
6 5 6 9 14 15 13 13 12 10 10 11 11 11 11 11 10 10 9 8 8 8 7 6 6 5 7 12 9 2 3 3 5 6 7 8 8 8 11 12 12 12 11
7 5 6 9 15 14 14 13 12 11 11 11 12 11 11 11 10 9 8 7 6 6 4 4 5 10 8 11 10 6 5 5 6 7 7 10 10 13 17 12 14 15 14
8 9 9 9 11 14 15 15 14 13 12 11 11 11 11 10 9 8 8 6 6 4 5 5 6 9 8 10 12 8 3 5 5 6 8 11 10 12 16 13 13 16 16
11 12 11 10 11 11 11 13 12 12 12 12 12 11 11 10 10 8 5 4 5 7 6 5 5 5 9 9 14 13 5 3 4 5 6 6 16 20 23 23 15 16 17
13 13 11 11 11 11 11 13 12 13 12 12 11 9 7 6 6 6 5 5 6 6 5 4 2 2 6 13 12 11 9 9 4 7 7 9 22 26 25 20 23 25 18
11 11 11 12 11 12 11 12 13 12 11 10 9 9 7 6 5 6 5 3 5 4 4 2 1 1 3 5 12 12 13 11 6 6 12 23 24 24 17 17 21 15 8
11 10 12 11 10 9 10 12 11 10 10 10 9 7 6 6 5 5 3 4 4 3 2 2 2 2 3 5 6 6 5 9 8 9 10 12 15 9 10 11 12 10 9
10 11 10 9 9 10 11 10 9 8 8 8 7 6 4 5 5 8 6 6 5 4 2 4 3 3 2 4 6 7 6 5 8 9 7 8 5 7 8 9 10 10 10
9 9 10 11 11 10 9 8 7 9 8 8 7 4 4 4 3 6 5 10 10 9 9 6 3 3 4 5 9 12 14 15 15 6 7 3 4 6 8 9 10 10 12
Wind_Direction
147 154 153 156 162 172 170 175 176 184 191 200 202 200 169 199 191 179 182 178 188 178 184 224 165 164 182 182 186 165 166 239 87 353 261 206 185 198 212 225 214 251 201
148 152 149 150 162 171 178 186 191 188 191 195 200 187 190 200 197 188 164 174 187 184 196 219 166 172 207 186 158 164 165 218 161 210 240 305 147 212 205 224 222 213 206
167 169 166 164 167 183 195 195 189 184 188 201 198 184 186 187 194 157 171 180 194 194 196 207 183 175 214 177 163 175 187 199 144 188 153 146 216 63 232 199 204 185 186
172 178 172 177 179 186 201 205 197 182 192 204 185 179 188 201 191 168 175 178 184 208 200 200 201 177 196 183 180 181 192 207 165 135 162 88 78 288 322 13 218 211 198
198 179 184 185 191 193 196 205 211 201 192 190 190 173 187 194 203 192 158 173 176 207 220 204 194 195 182 187 183 189 191 180 130 145 127 90 210 215 204 254 294 314 220
190 194 181 185 193 193 199 192 201 207 199 180 191 185 190 211 203 162 170 182 188 173 204 202 197 197 209 173 183 219 167 137 98 116 123 162 219 244 233 255 265 277 296
181 189 186 187 187 192 195 194 194 210 209 180 190 200 197 197 222 189 176 181 184 182 193 186 210 217 197 175 185 155 106 125 125 130 150 119 265 278 291 287 279 271 277
186 189 191 185 190 192 190 194 198 206 211 200 192 195 204 200 206 208 176 182 186 175 167 187 210 215 176 157 135 93 122 123 122 135 124 140 284 295 264 230 260 294 288
209 206 191 193 188 187 189 191 199 204 210 202 195 197 194 206 205 190 155 178 157 168 174 189 172 115 79 88 75 112 99 81 64 83 223 224 253 254 257 251 231 216 268
288 245 211 192 191 186 186 190 195 201 204 207 195 200 199 198 201 145 190 149 132 116 133 129 123 103 107 112 109 92 89 93 97 194 233 260 250 244 244 226 229 229 233
152 256 285 230 191 191 186 186 186 195 204 204 191 186 180 146 145 151 188 136 124 126 117 111 114 113 108 108 108 124 136 153 210 235 239 249 249 239 246 252 242 254 252
148 147 187 242 297 191 165 164 177 190 207 205 177 178 152 133 140 115 102 105 112 121 128 128 129 138 154 157 141 134 154 191 213 227 235 241 244 235 226 231 236 239 244
209 150 151 165 191 183 258 146 162 180 202 157 103 104 97 105 104 103 109 114 127 123 125 128 127 122 121 131 144 164 190 213 229 232 234 246 242 252 247 245 247 245 259
195 191 164 165 160 145 142 96 63 65 79 87 91 98 101 101 102 107 106 116 120 122 120 123 127 132 138 159 172 197 216 229 241 247 242 248 248 245 255 259 253 261 252
208 234 198 150 140 114 83 81 78 79 90 93 96 99 104 102 107 111 113 113 115 120 123 122 123 135 153 180 195 223 230 243 253 254 252 247 240 242 241 256 250 250 257
19 10 236 133 124 106 107 98 92 89 100 104 101 104 103 99 110 113 114 114 115 117 118 119 129 144 188 202 213 233 273 300 323 315 307 313 312 297 277 261 252 248 252
126 275 313 106 109 120 118 118 104 104 104 106 110 111 114 118 123 123 123 122 120 121 128 151 180 192 207 210 151 130 278 312 308 304 298 295 296 308 312 324 320 282 271
161 157 108 121 107 118 117 118 121 124 125 125 124 122 122 122 124 120 120 126 137 155 177 188 186 209 89 84 86 85 272 316 329 334 336 335 335 343 349 336 323 313 303
144 127 125 129 123 124 129 131 138 140 132 126 124 128 129 128 128 130 142 156 176 192 197 174 102 91 90 83 59 35 36 12 348 334 343 344 335 334 349 337 323 313 304
143 143 137 133 139 145 149 148 145 141 136 136 135 132 132 133 137 153 167 176 194 166 76 76 73 100 109 89 66 48 45 14 3 342 321 310 308 324 335 324 314 303 298
149 146 150 147 140 137 139 137 128 133 138 135 136 145 156 161 164 169 132 117 91 90 93 87 57 56 102 90 76 55 48 31 325 315 318 319 322 321 315 305 295 283 287
155 155 151 144 141 148 142 139 141 140 141 143 142 160 140 114 109 108 102 99 99 100 108 102 83 85 97 110 83 65 40 1 338 327 318 314 316 312 308 306 293 286 280
160 161 150 144 152 152 156 140 138 140 138 141 129 118 123 112 109 108 108 122 105 98 90 101 108 84 91 124 66 37 12 354 338 319 319 316 312 308 306 312 325 321 306
169 152 147 155 150 151 133 122 125 134 138 129 123 122 114 110 109 111 93 87 68 70 83 74 60 50 39 46 28 17 349 336 331 326 311 300 295 292 323 328 330 329 325
158 149 155 144 132 105 107 118 124 130 122 116 111 96 103 102 75 61 41 87 57 63 21 44 29 52 21 54 12 342 327 316 310 312 303 307 326 329 329 328 328 333 330
148 140 131 116 101 100 100 97 105 109 115 115 85 69 78 49 54 118 107 69 125 122 117 114 88 74 91 15 338 328 316 312 313 306 297 306 323 323 325 327 329 330 331